| time (UTC) | temp F | wind direction | speed MPH | gust MPH | rain 1hr in | rain 24hr in | rain mn in | humidity % | barometer mb |
| 20260505063003 | 51 | 320 | 0.0 | 2.0 | 0.00 | 0.00 | 0.00 | 89 | 1015.9 |
| 20260505062503 | 51 | 320 | 0.0 | 2.0 | 0.00 | 0.00 | 0.00 | 89 | 1015.9 |
| 20260505062004 | 51 | 320 | 0.0 | 2.0 | 0.00 | 0.00 | 0.00 | 89 | 1015.8 |
| 20260505061509 | 51 | 320 | 0.0 | 2.0 | 0.00 | 0.00 | 0.00 | 89 | 1015.8 |
| 20260505061003 | 51 | 320 | 0.0 | 2.0 | 0.00 | 0.00 | 0.00 | 89 | 1015.8 |
| 20260505060503 | 51 | 320 | 0.0 | 2.0 | 0.00 | 0.00 | 0.00 | 88 | 1015.9 |
| 20260505060012 | 51 | 320 | 0.0 | 2.0 | 0.00 | 0.00 | 0.00 | 88 | 1015.9 |
| 20260505055503 | 52 | 320 | 0.0 | 2.0 | 0.00 | 0.00 | 0.00 | 88 | 1015.9 |
| 20260505055004 | 52 | 320 | 0.0 | 2.0 | 0.00 | 0.00 | 0.00 | 88 | 1015.9 |
| 20260505054520 | 52 | 320 | 0.0 | 2.0 | 0.00 | 0.00 | 0.00 | 88 | 1015.9 |
| 20260505054008 | 52 | 320 | 0.0 | 2.0 | 0.00 | 0.00 | 0.00 | 88 | 1015.8 |
| 20260505053506 | 52 | 320 | 0.0 | 2.0 | 0.00 | 0.00 | 0.00 | 88 | 1015.7 |
| 20260505053026 | 52 | 320 | 0.0 | 2.0 | 0.00 | 0.00 | 0.00 | 88 | 1015.7 |
| 20260505052506 | 52 | 320 | 0.0 | 2.0 | 0.00 | 0.00 | 0.00 | 87 | 1015.6 |
| 20260505052002 | 52 | 297 | 0.0 | 2.0 | 0.00 | 0.00 | 0.00 | 87 | 1015.6 |
| 20260505051504 | 53 | 274 | 0.0 | 2.0 | 0.00 | 0.00 | 0.00 | 87 | 1015.6 |
| 20260505051003 | 53 | 179 | 0.0 | 2.0 | 0.00 | 0.00 | 0.00 | 87 | 1015.5 |
| 20260505050507 | 53 | 276 | 0.0 | 2.0 | 0.00 | 0.00 | 0.00 | 86 | 1015.5 |
| 20260505041524 | 54 | 94 | 0.0 | 2.0 | 0.00 | 0.00 | 0.00 | 85 | 1015.4 |
| 20260505041006 | 54 | 98 | 0.0 | 2.0 | 0.00 | 0.00 | 0.00 | 85 | 1015.4 |
| 20260505040503 | 54 | 99 | 0.0 | 2.0 | 0.00 | 0.00 | 0.00 | 85 | 1015.4 |
| 20260505040008 | 54 | 99 | 0.0 | 2.0 | 0.00 | 0.00 | 0.00 | 85 | 1015.4 |
| 20260505035506 | 54 | 106 | 0.0 | 2.0 | 0.00 | 0.00 | 0.00 | 85 | 1015.5 |
| 20260505035003 | 54 | 110 | 0.0 | 2.0 | 0.00 | 0.00 | 0.00 | 84 | 1015.6 |
| 20260505034513 | 55 | 185 | 0.0 | 2.0 | 0.00 | 0.00 | 0.00 | 84 | 1015.5 |
| 20260505034003 | 55 | 185 | 0.0 | 2.0 | 0.00 | 0.00 | 0.00 | 83 | 1015.4 |
| 20260505033506 | 55 | 185 | 0.0 | 2.0 | 0.00 | 0.00 | 0.00 | 83 | 1015.5 |
| 20260505033031 | 55 | 185 | 0.0 | 1.0 | 0.00 | 0.00 | 0.00 | 82 | 1015.5 |
| 20260505032506 | 56 | 185 | 0.0 | 1.0 | 0.00 | 0.00 | 0.00 | 81 | 1015.6 |
| 20260505032008 | 56 | 185 | 0.0 | 1.0 | 0.00 | 0.00 | 0.00 | 82 | 1015.6 |
| 20260505031523 | 56 | 185 | 0.0 | 1.0 | 0.00 | 0.00 | 0.00 | 81 | 1015.6 |
| 20260505031006 | 56 | 185 | 0.0 | 2.0 | 0.00 | 0.00 | 0.00 | 80 | 1015.7 |
| 20260505030508 | 56 | 185 | 0.0 | 2.0 | 0.00 | 0.00 | 0.00 | 80 | 1015.6 |
| 20260505030024 | 56 | 185 | 0.0 | 2.0 | 0.00 | 0.00 | 0.00 | 79 | 1015.7 |
| 20260505025504 | 56 | 185 | 0.0 | 1.0 | 0.00 | 0.00 | 0.00 | 79 | 1015.6 |
| 20260505025004 | 57 | 185 | 0.0 | 2.0 | 0.00 | 0.00 | 0.00 | 79 | 1015.6 |
| 20260505024513 | 57 | 185 | 0.0 | 2.0 | 0.00 | 0.00 | 0.00 | 78 | 1015.6 |
| 20260505024008 | 57 | 185 | 0.0 | 2.0 | 0.00 | 0.00 | 0.00 | 78 | 1015.6 |
| 20260505023505 | 57 | 185 | 0.0 | 2.0 | 0.00 | 0.00 | 0.00 | 76 | 1015.6 |
| 20260505023020 | 57 | 185 | 0.0 | 2.0 | 0.00 | 0.00 | 0.00 | 76 | 1015.5 |
| 20260505022506 | 58 | 185 | 0.0 | 1.0 | 0.00 | 0.00 | 0.00 | 75 | 1015.4 |
| 20260505022008 | 58 | 185 | 0.0 | 2.0 | 0.00 | 0.00 | 0.00 | 75 | 1015.4 |
| 20260505021523 | 58 | 185 | 0.0 | 2.0 | 0.00 | 0.00 | 0.00 | 74 | 1015.4 |
| 20260505021008 | 58 | 185 | 0.0 | 2.0 | 0.00 | 0.00 | 0.00 | 73 | 1015.4 |
| 20260505020507 | 59 | 185 | 0.0 | 1.0 | 0.00 | 0.00 | 0.00 | 72 | 1015.4 |
| 20260505020026 | 59 | 185 | 0.0 | 2.0 | 0.00 | 0.00 | 0.00 | 71 | 1015.3 |
| 20260505015508 | 59 | 185 | 0.0 | 2.0 | 0.00 | 0.00 | 0.00 | 71 | 1015.3 |
| 20260505015012 | 60 | 185 | 0.0 | 2.0 | 0.00 | 0.00 | 0.00 | 69 | 1015.2 |
| 20260505014513 | 60 | 185 | 0.0 | 2.0 | 0.00 | 0.00 | 0.00 | 69 | 1015.2 |
| 20260505014003 | 61 | 185 | 0.0 | 2.0 | 0.00 | 0.00 | 0.00 | 67 | 1015.1 |
| 20260505013504 | 61 | 185 | 0.0 | 2.0 | 0.00 | 0.00 | 0.00 | 67 | 1015.1 |
| 20260505013014 | 61 | 185 | 0.0 | 2.0 | 0.00 | 0.00 | 0.00 | 67 | 1015.0 |
| 20260505012504 | 61 | 185 | 0.0 | 2.0 | 0.00 | 0.00 | 0.00 | 66 | 1015.0 |
| 20260505012004 | 62 | 185 | 0.0 | 2.0 | 0.00 | 0.00 | 0.00 | 65 | 1015.0 |
| 20260505011522 | 62 | 185 | 0.0 | 2.0 | 0.00 | 0.00 | 0.00 | 64 | 1015.1 |
| 20260505011008 | 62 | 185 | 0.0 | 0.0 | 0.00 | 0.00 | 0.00 | 64 | 1015.1 |
| 20260505010506 | 63 | 185 | 0.0 | 0.0 | 0.00 | 0.00 | 0.00 | 62 | 1015.0 |
| 20260505010025 | 63 | 185 | 0.0 | 0.0 | 0.00 | 0.00 | 0.00 | 61 | 1014.9 |
| 20260505005508 | 64 | 185 | 0.0 | 2.0 | 0.00 | 0.00 | 0.00 | 61 | 1015.0 |
| 20260505005010 | 64 | 185 | 0.0 | 2.0 | 0.00 | 0.00 | 0.00 | 59 | 1014.9 |
| 20260505004526 | 65 | 185 | 0.0 | 2.0 | 0.00 | 0.00 | 0.00 | 57 | 1014.8 |
| 20260505004011 | 65 | 185 | 0.0 | 0.0 | 0.00 | 0.00 | 0.00 | 57 | 1014.8 |
| 20260505003510 | 66 | 185 | 0.0 | 2.0 | 0.00 | 0.00 | 0.00 | 55 | 1014.8 |
| 20260505003013 | 66 | 185 | 0.0 | 2.0 | 0.00 | 0.00 | 0.00 | 54 | 1014.7 |
| 20260505002504 | 67 | 185 | 0.0 | 2.0 | 0.00 | 0.00 | 0.00 | 53 | 1014.6 |
| 20260505002007 | 68 | 185 | 0.0 | 2.0 | 0.00 | 0.00 | 0.00 | 53 | 1014.7 |
| 20260505001528 | 68 | 185 | 0.0 | 2.0 | 0.00 | 0.00 | 0.00 | 51 | 1014.7 |
| 20260505001004 | 69 | 185 | 0.0 | 2.0 | 0.00 | 0.00 | 0.00 | 51 | 1014.7 |
| 20260505000507 | 69 | 185 | 0.0 | 2.0 | 0.00 | 0.00 | 0.00 | 49 | 1014.7 |
| 20260505000022 | 70 | 185 | 0.0 | 2.0 | 0.00 | 0.00 | 0.00 | 47 | 1014.7 |
| 20260504235508 | 70 | 185 | 0.0 | 2.0 | 0.00 | 0.00 | 0.00 | 47 | 1014.8 |
| 20260504235007 | 71 | 185 | 0.0 | 2.0 | 0.00 | 0.00 | 0.00 | 46 | 1014.9 |
| 20260504234525 | 71 | 185 | 0.0 | 2.0 | 0.00 | 0.00 | 0.00 | 44 | 1014.9 |
| 20260504234009 | 72 | 185 | 0.0 | 2.0 | 0.00 | 0.00 | 0.00 | 44 | 1014.9 |
| 20260504233504 | 73 | 185 | 0.0 | 2.0 | 0.00 | 0.00 | 0.00 | 41 | 1015.1 |
| 20260504233010 | 73 | 185 | 0.0 | 2.0 | 0.00 | 0.00 | 0.00 | 41 | 1015.1 |
| 20260504232506 | 73 | 186 | 0.0 | 4.0 | 0.00 | 0.00 | 0.00 | 41 | 1015.1 |
| 20260504232003 | 74 | 158 | 1.0 | 5.0 | 0.00 | 0.00 | 0.00 | 38 | 1015.1 |
| 20260504231516 | 74 | 161 | 2.0 | 5.0 | 0.00 | 0.00 | 0.00 | 38 | 1015.1 |
| 20260504231008 | 74 | 283 | 1.0 | 5.0 | 0.00 | 0.00 | 0.00 | 37 | 1015.1 |
| 20260504230506 | 75 | 242 | 0.0 | 5.0 | 0.00 | 0.00 | 0.00 | 38 | 1015.0 |
| 20260504230021 | 75 | 217 | 2.0 | 4.0 | 0.00 | 0.00 | 0.00 | 37 | 1015.0 |
| 20260504225505 | 75 | 167 | 1.0 | 4.0 | 0.00 | 0.00 | 0.00 | 39 | 1015.1 |
| 20260504225010 | 75 | 150 | 1.0 | 4.0 | 0.00 | 0.00 | 0.00 | 37 | 1015.2 |
| 20260504224533 | 75 | 219 | 1.0 | 5.0 | 0.00 | 0.00 | 0.00 | 36 | 1015.2 |
| 20260504224003 | 75 | 162 | 2.0 | 5.0 | 0.00 | 0.00 | 0.00 | 36 | 1015.2 |
| 20260504223505 | 75 | 261 | 2.0 | 4.0 | 0.00 | 0.00 | 0.00 | 36 | 1015.2 |
| 20260504223008 | 76 | 229 | 1.0 | 6.0 | 0.00 | 0.00 | 0.00 | 38 | 1015.2 |
| 20260504222504 | 75 | 179 | 1.0 | 6.0 | 0.00 | 0.00 | 0.00 | 38 | 1015.1 |
| 20260504222003 | 75 | 174 | 3.0 | 8.0 | 0.00 | 0.00 | 0.00 | 36 | 1015.2 |
| 20260504221516 | 75 | 160 | 2.0 | 8.0 | 0.00 | 0.00 | 0.00 | 34 | 1015.2 |
| 20260504221004 | 76 | 168 | 2.0 | 8.0 | 0.00 | 0.00 | 0.00 | 34 | 1015.3 |
| 20260504220510 | 76 | 148 | 3.0 | 7.0 | 0.00 | 0.00 | 0.00 | 33 | 1015.3 |
| 20260504220018 | 76 | 188 | 3.0 | 7.0 | 0.00 | 0.00 | 0.00 | 36 | 1015.3 |
| 20260504215506 | 76 | 236 | 2.0 | 5.0 | 0.00 | 0.00 | 0.00 | 37 | 1015.3 |
| 20260504215006 | 76 | 207 | 2.0 | 5.0 | 0.00 | 0.00 | 0.00 | 36 | 1015.2 |
| 20260504214526 | 76 | 188 | 2.0 | 9.0 | 0.00 | 0.00 | 0.00 | 36 | 1015.1 |
| 20260504214008 | 76 | 113 | 2.0 | 9.0 | 0.00 | 0.00 | 0.00 | 34 | 1015.1 |
| 20260504213514 | 76 | 205 | 3.0 | 7.0 | 0.00 | 0.00 | 0.00 | 35 | 1015.1 |
| 20260504213005 | 76 | 141 | 3.0 | 7.0 | 0.00 | 0.00 | 0.00 | 1015.3 | |
| 20260504212504 | 76 | 180 | 2.0 | 11.0 | 0.00 | 0.00 | 0.00 | 1015.2 | |
| 20260504212008 | 76 | 191 | 4.0 | 11.0 | 0.00 | 0.00 | 0.00 | 1015.2 | |
| 20260504211519 | 76 | 181 | 1.0 | 6.0 | 0.00 | 0.00 | 0.00 | 33 | 1015.2 |
| 20260504211005 | 76 | 148 | 1.0 | 8.0 | 0.00 | 0.00 | 0.00 | 33 | 1015.2 |
| 20260504210504 | 77 | 135 | 4.0 | 11.0 | 0.00 | 0.00 | 0.00 | 33 | 1015.2 |
| 20260504210032 | 76 | 133 | 4.0 | 11.0 | 0.00 | 0.00 | 0.00 | 33 | 1015.3 |
| 20260504205505 | 76 | 266 | 4.0 | 11.0 | 0.00 | 0.00 | 0.00 | 34 | 1015.3 |
| 20260504205005 | 75 | 176 | 4.0 | 12.0 | 0.00 | 0.00 | 0.00 | 34 | 1015.3 |
| 20260504204531 | 76 | 198 | 6.0 | 12.0 | 0.00 | 0.00 | 0.00 | 35 | 1015.4 |
| 20260504204010 | 76 | 184 | 5.0 | 9.0 | 0.00 | 0.00 | 0.00 | 34 | 1015.4 |
| 20260504203513 | 76 | 273 | 1.0 | 9.0 | 0.00 | 0.00 | 0.00 | 34 | 1015.4 |
| 20260504203027 | 76 | 185 | 4.0 | 8.0 | 0.00 | 0.00 | 0.00 | 38 | 1015.5 |
| 20260504202507 | 76 | 336 | 2.0 | 10.0 | 0.00 | 0.00 | 0.00 | 36 | 1015.5 |
| 20260504202003 | 76 | 205 | 4.0 | 10.0 | 0.00 | 0.00 | 0.00 | 33 | 1015.7 |
| 20260504201508 | 77 | 233 | 1.0 | 9.0 | 0.00 | 0.00 | 0.00 | 34 | 1015.6 |
| 20260504201003 | 75 | 272 | 4.0 | 9.0 | 0.00 | 0.00 | 0.00 | 35 | 1015.8 |
| 20260504200503 | 76 | 139 | 2.0 | 9.0 | 0.00 | 0.00 | 0.00 | 32 | 1015.6 |
| 20260504200014 | 76 | 319 | 4.0 | 9.0 | 0.00 | 0.00 | 0.00 | 31 | 1015.8 |
| 20260504195504 | 77 | 217 | 5.0 | 9.0 | 0.00 | 0.00 | 0.00 | 34 | 1015.8 |
| 20260504195008 | 77 | 288 | 2.0 | 6.0 | 0.00 | 0.00 | 0.00 | 36 | 1015.9 |
| 20260504194521 | 77 | 194 | 2.0 | 6.0 | 0.00 | 0.00 | 0.00 | 1015.9 | |
| 20260504194008 | 76 | 117 | 2.0 | 7.0 | 0.00 | 0.00 | 0.00 | 1015.9 | |
| 20260504193506 | 76 | 129 | 4.0 | 7.0 | 0.00 | 0.00 | 0.00 | 1016.1 | |
| 20260504193024 | 75 | 161 | 2.0 | 9.0 | 0.00 | 0.00 | 0.00 | 1016.2 | |
| 20260504192509 | 75 | 49 | 3.0 | 9.0 | 0.00 | 0.00 | 0.00 | 35 | 1016.2 |
| 20260504192014 | 76 | 163 | 4.0 | 9.0 | 0.00 | 0.00 | 0.00 | 35 | 1016.3 |
| 20260504191531 | 76 | 106 | 4.0 | 7.0 | 0.00 | 0.00 | 0.00 | 1016.3 | |
| 20260504191004 | 76 | 360 | 0.0 | 9.0 | 0.00 | 0.00 | 0.00 | 1016.3 | |
| 20260504190506 | 75 | 303 | 4.0 | 9.0 | 0.00 | 0.00 | 0.00 | 1016.5 | |
| 20260504190014 | 76 | 200 | 3.0 | 5.0 | 0.00 | 0.00 | 0.00 | 37 | 1016.6 |
| 20260504185504 | 76 | 312 | 1.0 | 8.0 | 0.00 | 0.00 | 0.00 | 37 | 1016.8 |
| 20260504185007 | 74 | 294 | 4.0 | 8.0 | 0.00 | 0.00 | 0.00 | 36 | 1016.9 |
| 20260504184518 | 75 | 190 | 3.0 | 7.0 | 0.00 | 0.00 | 0.00 | 37 | 1016.9 |
| 20260504184009 | 75 | 229 | 4.0 | 7.0 | 0.00 | 0.00 | 0.00 | 38 | 1016.9 |
| 20260504183514 | 76 | 293 | 1.0 | 5.0 | 0.00 | 0.00 | 0.00 | 40 | 1016.8 |
| 20260504183022 | 76 | 165 | 2.0 | 5.0 | 0.00 | 0.00 | 0.00 | 38 | 1017.0 |
| 20260504182511 | 75 | 156 | 1.0 | 7.0 | 0.00 | 0.00 | 0.00 | 38 | 1016.8 |
| 20260504182012 | 74 | 86 | 4.0 | 9.0 | 0.00 | 0.00 | 0.00 | 37 | 1017.0 |
| 20260504181526 | 74 | 176 | 3.0 | 9.0 | 0.00 | 0.00 | 0.00 | 39 | 1017.1 |
| 20260504181008 | 75 | 193 | 1.0 | 6.0 | 0.00 | 0.00 | 0.00 | 39 | 1017.1 |
| 20260504180514 | 76 | 57 | 2.0 | 5.0 | 0.00 | 0.00 | 0.00 | 36 | 1017.2 |
| 20260504180028 | 74 | 168 | 1.0 | 6.0 | 0.00 | 0.00 | 0.00 | 38 | 1017.4 |
| 20260504175503 | 74 | 252 | 3.0 | 6.0 | 0.00 | 0.00 | 0.00 | 39 | 1017.4 |
| 20260504175003 | 74 | 240 | 2.0 | 9.0 | 0.00 | 0.00 | 0.00 | 39 | 1017.6 |
| 20260504174518 | 73 | 206 | 4.0 | 9.0 | 0.00 | 0.00 | 0.00 | 39 | 1017.6 |
| 20260504174007 | 74 | 212 | 3.0 | 6.0 | 0.00 | 0.00 | 0.00 | 39 | 1017.7 |
| 20260504173509 | 73 | 146 | 1.0 | 7.0 | 0.00 | 0.00 | 0.00 | 38 | 1017.7 |
| 20260504173023 | 73 | 182 | 2.0 | 7.0 | 0.00 | 0.00 | 0.00 | 39 | 1017.9 |
| 20260504172509 | 73 | 141 | 3.0 | 7.0 | 0.00 | 0.00 | 0.00 | 41 | 1017.8 |
| 20260504172012 | 73 | 211 | 1.0 | 4.0 | 0.00 | 0.00 | 0.00 | 40 | 1017.9 |
| 20260504171526 | 74 | 25 | 2.0 | 4.0 | 0.00 | 0.00 | 0.00 | 40 | 1017.9 |
| 20260504171008 | 73 | 277 | 2.0 | 8.0 | 0.00 | 0.00 | 0.00 | 41 | 1018.0 |
| 20260504170517 | 72 | 222 | 3.0 | 8.0 | 0.00 | 0.00 | 0.00 | 42 | 1018.0 |
| 20260504151006 | 68 | 188 | 2.0 | 8.0 | 0.00 | 0.00 | 0.00 | 48 | 1018.5 |
| 20260504150511 | 67 | 181 | 4.0 | 8.0 | 0.00 | 0.00 | 0.00 | 47 | 1018.6 |
| 20260504141002 | 61 | 65 | 0.0 | 2.0 | 0.00 | 0.00 | 0.00 | 65 | 1019.3 |
| 20260504140502 | 60 | 66 | 0.0 | 2.0 | 0.00 | 0.00 | 0.00 | 65 | 1019.4 |
| 20260504130509 | 50 | 14 | 0.0 | 2.0 | 0.00 | 0.00 | 0.00 | 86 | 1019.4 |
| 20260504110507 | 41 | 6 | 0.0 | 2.0 | 0.00 | 0.00 | 0.00 | 92 | 1018.9 |
| 20260504100507 | 41 | 10 | 0.0 | 2.0 | 0.00 | 0.00 | 0.00 | 92 | 1018.6 |
| 20260504081531 | 42 | 10 | 0.0 | 0.0 | 0.00 | 0.00 | 0.00 | 91 | 1018.6 |
| 20260504081010 | 43 | 10 | 0.0 | 0.0 | 0.00 | 0.00 | 0.00 | 91 | 1018.6 |
| 20260504080503 | 43 | 10 | 0.0 | 2.0 | 0.00 | 0.00 | 0.00 | 91 | 1018.5 |